Regional Weather Roundup
Issued by NWS

Home | Current Version | Previous Version | Graphics & Text | Print | Product List | Glossary On
Versions: 1 2 3 4 5 6 7 8 9 10 11 12 13 14 15 16 17 18 19 20 21 22 23 24 25 26 27 28 29 30 31 32 33 34 35 36 37 38 39 40 41 42 43 44 45 46 47 48 49 50
000
ASUS43 KOAX 200702
RWRNE

WEATHER ROUNDUP FOR NEBRASKA
NATIONAL WEATHER SERVICE OMAHA NE
100 AM CST MON FEB 20 2017

NOTES: SATELLITE DATA IS BEING USED TO AUGMENT CLOUD COVER ABOVE
       12000 FEET.
       "FAIR" INDICATES FEW OR NO CLOUDS BELOW 12,000 FEET WITH NO
       SIGNIFICANT WEATHER AND/OR OBSTRUCTIONS TO VISIBILITY.

  * THESE STATIONS DO NOT REPORT WEATHER SUCH AS RAIN...SNOW OR FOG.

NEZ001>004-019>022-054>056-200800-
NEBRASKA PANHANDLE

CITY           SKY/WX    TMP DP  RH WIND       PRES   REMARKS
SCOTTSBLUFF    CLOUDY    47  36  65 W14       29.69R
ALLIANCE       PTCLDY    40  35  83 W12       29.64R WCI  33
CHADRON        CLOUDY    49  41  74 SW10      29.64R
KIMBALL        LGT RAIN  45  34  65 NW22G31   29.72S
SIDNEY         MOCLDY    45  35  68 NW13      29.69R
$$

NEZ057>060-069>072-079>082-200800-
SOUTHWEST NEBRASKA

CITY           SKY/WX    TMP DP  RH WIND       PRES   REMARKS
NORTH PLATTE   CLOUDY    52  48  86 SE9       29.66F
IMPERIAL       PTCLDY    50  31  48 SE10      29.64F
LEXINGTON      CLOUDY    55  52  89 S8        29.69S FOG
MCCOOK         CLOUDY    52  46  80 SW6       29.67R
OGALLALA       CLOUDY    54  32  43 S8        29.65R
$$

NEZ005>010-023>029-035>040-094-200800-
NORTH CENTRAL NEBRASKA

CITY           SKY/WX    TMP DP  RH WIND       PRES   REMARKS
VALENTINE      PTCLDY    54  45  71 S16       29.59F
AINSWORTH      PTCLDY    52  49  90 S10       29.63F
BROKEN BOW     CLOUDY    55  52  89 S8        29.68S
O`NEILL        CLOUDY    55  53  91 S10       29.66S
ORD            CLOUDY    57  52  83 S16       29.67F
THEDFORD       CLOUDY    54  49  85 S13       29.63F
$$

NEZ041-046>049-061>064-073>077-083>087-200800-
SOUTH CENTRAL NEBRASKA

CITY           SKY/WX    TMP DP  RH WIND       PRES   REMARKS
GRAND ISLAND   CLOUDY    53  52  96 S15       29.71F FOG
AURORA         CLOUDY    52  51  96 S13       29.71F FOG
HASTINGS       PTCLDY    54  52  93 S13G20    29.72F FOG
HEBRON         CLOUDY    58  55  89 S14       29.73F
HOLDREGE       CLOUDY    55  53  93 S16G24    29.68S FOG
KEARNEY *      CLOUDY    55  52  88 S21G26    29.69S
YORK           CLOUDY    52  52 100 S10       29.74F
$$

NEZ011>018-030>034-042>045-200800-
NORTHEAST NEBRASKA

CITY           SKY/WX    TMP DP  RH WIND       PRES   REMARKS
NORFOLK        CLOUDY    51  48  89 SE7       29.73S
ALBION         CLOUDY    54  50  88 S8        29.71S FOG
BLAIR          MOCLDY    58  53  85 S13       29.79F
FREMONT        MOCLDY    56  52  86 SE14      29.76F
TEKAMAH        CLOUDY    54  50  86 SE9       29.77F
WAYNE          CLOUDY    51  50  97 S10       29.74S
$$

NEZ050>053-065>068-078-088>093-200800-
SOUTHEAST NEBRASKA

CITY           SKY/WX    TMP DP  RH WIND       PRES   REMARKS
LINCOLN        MOCLDY    59  54  83 S16       29.76F
OMAHA EPPLEY   CLOUDY    58  52  80 S12       29.80F
BEATRICE       CLOUDY    60  56  86 S13       29.76F
FALLS CITY     CLOUDY    54  51  90 SE7       29.83S
NEBRASKA CITY  MOCLDY    53  52  96 SE6       29.81F FOG
PLATTSMOUTH    CLOUDY    55  50  82 SE10      29.81S
$$

NEZ044-045-051>053-067-200800-
OMAHA AREA

CITY           SKY/WX    TMP DP  RH WIND       PRES   REMARKS
OMAHA EPPLEY   CLOUDY    58  52  80 S12       29.80F
BLAIR          MOCLDY    58  53  85 S13       29.79F
FREMONT        MOCLDY    56  52  86 SE14      29.76F
MILLARD        CLOUDY    58  54  86 SE7       29.80F
OFFUTT AFB     CLOUDY    65  65 100 SE10      29.81S
PLATTSMOUTH    CLOUDY    55  50  82 SE10      29.81S
WAHOO          FAIR      52  50  92 SE9       29.78F
$$




USA.gov is the U.S. government's official web portal to all federal, state and local government web resources and services.